User: anonymous   Login
Location: Caltech
(34.1382°N, 118.1253°W)
Time: 00:35:50
(UTC-07:00)
Language:

Cosmos 2251 Rocket - Orbit

View from above orbital plane
View from above orbital plane
View from above satellite
View from above satellite

Ground track
Ground track

The orbit data is extracted from the following two-line orbital elements,

1 22676U 93036B   14304.00924539  .00000161  00000-0  67375-4 0  3600
2 22676 074.0412 137.6584 0018441 036.9291 323.3126 14.33668130117728
Epoch (UTC): 31 October 2014 00:13:18
Eccentricity: 0.0018441
inclination: 74.0412°
perigee height: 766 km
apogee height: 792 km
right ascension of ascending node: 137.6584°
argument of perigee: 36.9291°
revolutions per day: 14.33668130
mean anomaly at epoch: 323.3126°
orbit number at epoch: 11772

The dashed part of the orbit path shows where the satellite is in the earth's shadow,  

DLR